CAPE
1069 1164 1143 1080 522 201 183 154 172 233 323 874 1284 1043 676 436 308 258 315 372 334 273 121 109 157 122 117 20 6 6 0 0 0 0 0 0 9 45 11 5 7 1 9
43 588 352 282 164 134 183 149 344 707 1211 1062 789 740 737 749 578 455 337 236 119 48 60 36 94 229 148 155 17 2 0 0 0 0 0 0 0 1 3 0 0 0 0
0 111 225 267 232 436 347 358 810 594 208 148 116 161 88 166 242 237 253 129 58 58 60 72 44 80 93 65 75 40 10 46 6 10 0 0 0 0 0 0 0 0 0
493 385 407 377 498 505 558 436 299 204 101 34 9 0 0 0 3 9 14 2 2 21 26 60 66 51 44 79 99 40 42 22 6 2 0 0 0 0 0 0 0 0 0
698 607 542 427 188 118 69 66 54 29 12 9 0 2 8 6 5 1 0 0 0 0 0 5 26 49 94 89 76 55 38 38 62 32 12 0 0 0 0 0 0 0 0
652 500 53 34 16 2 29 48 40 9 23 23 0 0 0 0 0 0 0 0 0 6 18 29 11 35 34 106 135 112 94 63 58 125 37 33 1 0 0 0 0 0 0
97 21 3 0 0 0 0 0 0 0 0 4 0 0 0 0 0 0 0 0 0 6 38 35 23 48 40 34 44 88 76 57 52 42 0 0 0 0 34 0 0 0 0
0 0 0 0 0 0 0 0 0 0 0 0 0 8 4 22 9 0 0 0 1 34 47 42 36 22 0 0 0 8 19 32 40 1 0 0 0 0 20 3 0 0 0
0 0 0 0 0 0 0 8 0 0 1 0 20 16 14 13 0 0 0 0 1 4 1 28 13 0 0 0 0 0 0 6 58 6 7 9 0 15 18 37 1 0 0
0 0 0 0 0 0 0 2 13 19 33 30 9 9 50 5 20 7 2 0 0 0 0 7 0 0 0 0 0 0 0 0 0 4 1 0 0 1 1 1 22 0 0
0 0 0 0 0 0 20 33 28 42 2 0 5 22 28 49 0 4 0 0 0 0 0 0 1 0 0 0 0 0 0 0 0 0 0 0 0 0 0 0 5 0 0
0 0 0 0 1 13 22 60 22 3 26 2 4 0 1 2 0 0 0 0 0 0 0 0 0 0 0 0 0 0 0 0 0 1 0 6 62 78 0 1 3 1 0
0 0 0 4 14 53 120 22 1 0 4 4 20 2 0 4 0 0 0 0 0 0 0 0 0 0 0 0 0 0 0 0 1 0 1 0 30 11 0 3 1 2 1
0 5 15 61 26 35 0 1 0 0 0 0 0 0 0 2 0 0 0 0 0 0 0 0 0 0 0 0 0 0 0 0 0 2 0 6 73 0 1 1 5 1 2
14 12 0 8 19 15 12 3 0 0 1 0 0 0 0 0 0 0 0 0 0 0 0 0 0 0 1 0 0 1 0 0 1 2 13 18 15 8 1 2 2 2 15
0 1 5 15 1 3 3 12 5 0 0 0 0 0 0 0 0 0 1 2 1 0 0 2 1 0 1 1 1 1 3 4 1 2 2 2 0 0 1 1 0 7 8
0 1 4 1 0 0 0 0 0 0 0 0 0 0 0 0 0 0 0 0 0 0 0 0 0 1 0 0 0 0 0 1 1 0 0 0 0 23 22 21 26 22 7
2 8 0 0 0 0 0 0 0 0 0 0 0 0 0 0 0 0 0 15 14 0 0 5 8 6 3 0 0 0 0 2 1 1 0 24 27 29 29 54 38 31 23
20 16 0 0 0 0 0 0 0 0 0 0 0 0 0 0 0 0 3 11 19 21 0 0 7 2 7 0 3 13 9 2 4 6 4 13 16 18 18 25 24 19 0
31 3 2 0 0 0 0 0 0 0 0 0 0 0 0 0 1 16 5 10 0 0 0 0 0 0 0 0 0 2 0 0 0 0 0 0 0 0 0 0 1 0 0
17 22 6 0 0 0 0 0 0 0 0 0 0 0 0 0 0 18 3 0 0 0 0 0 0 0 0 0 0 0 0 0 0 0 0 0 0 0 0 0 0 0 0
8 13 0 0 0 0 0 0 0 0 0 0 0 0 12 0 2 0 0 0 0 0 0 0 0 0 0 0 0 0 0 0 0 0 0 0 0 0 0 0 0 0 0
10 11 1 2 0 0 0 0 0 0 0 0 1 0 12 18 11 0 0 0 0 0 0 0 0 0 0 0 0 0 0 0 0 0 0 0 0 0 0 0 0 0 0
2 14 32 0 3 5 3 0 0 0 0 0 1 0 3 0 11 0 0 0 0 0 0 0 0 0 0 0 0 0 0 0 0 0 0 0 0 0 0 0 0 0 0
18 1 12 17 19 22 1 0 9 7 2 0 1 6 2 0 0 0 0 0 0 0 0 0 0 0 0 0 0 0 0 0 0 0 0 0 0 2 0 0 0 0 0
17 17 21 43 60 20 10 5 0 9 0 24 0 0 0 0 0 0 0 0 0 0 0 0 0 0 0 0 0 0 0 0 0 0 0 2 1 1 7 1 0 0 0
CIN
-82 -84 -75 -78 -208 -268 -235 -219 -194 -190 -143 -42 -16 -26 -49 -75 -103 -96 -64 -47 -41 -49 -83 -55 -60 -60 -39 -55 -84 -101 0 0 0 0 0 0 -85 -141 -175 -233 -219 -66 -204
-440 -43 -195 -310 -334 -251 -205 -188 -132 -67 -20 -22 -33 -37 -25 -15 -26 -34 -44 -67 -76 -87 -74 -85 -53 -30 -26 -16 -30 -13 0 0 0 0 0 0 0 -153 -146 -11 -4 0 0
0 -18 -196 -192 -196 -132 -161 -150 -42 -40 -138 -149 -132 -83 -69 -46 -33 -35 -34 -45 -56 -58 -62 -59 -46 -26 -19 -26 -7 -30 -35 -22 -14 -46 0 0 0 0 0 0 0 0 0
-25 -93 -121 -140 -105 -102 -64 -64 -85 -125 -158 -159 -76 0 0 0 -58 -84 -45 -31 -40 -59 -60 -45 -36 -46 -53 -43 -30 -41 -46 -38 -37 -26 0 0 0 0 0 0 0 0 0
-88 -84 -63 -71 -101 -79 -121 -144 -150 -166 -154 -147 0 -65 -86 -50 -66 -56 0 0 0 0 0 -56 -55 -38 -30 -34 -52 -55 -44 -24 -11 -14 -10 0 0 0 0 0 0 0 0
-29 -40 -130 -64 -73 -106 -114 -107 -112 -105 -75 -67 0 0 0 0 0 0 0 0 0 -40 -53 -54 -86 -70 -38 -39 -30 -57 -53 -39 -26 -12 -11 -3 0 -1 0 0 0 0 0
-56 -57 -69 0 0 0 -32 0 0 0 0 -66 0 0 0 0 0 0 0 0 0 -76 -60 -62 -64 -41 -58 -78 -64 -50 -75 -121 -110 -49 0 0 0 0 -6 0 0 0 0
0 0 0 0 0 0 0 0 0 0 0 0 0 -17 -40 -64 -11 0 0 0 -28 -98 -84 -81 -88 -84 0 0 0 -104 -120 -107 -146 -44 0 0 0 0 -14 -14 0 -27 0
0 0 0 0 0 0 0 -56 0 0 -37 0 -76 -70 -60 -106 0 0 0 -18 -12 -40 -16 -54 -59 0 0 0 0 0 0 -108 -154 -148 -132 -128 0 -20 -17 -2 -1 0 0
0 0 0 0 0 0 0 -66 -60 -71 -66 -81 -95 -132 -107 -136 -133 -90 -67 0 0 0 0 -66 -5 0 0 0 0 0 0 0 0 -105 0 0 0 0 0 -15 -3 0 0
0 0 0 0 0 0 -48 -50 -74 -100 -19 0 -125 -91 -87 -92 -37 -63 0 0 0 0 0 0 -25 0 0 0 0 0 0 0 0 0 0 0 0 0 0 0 -41 0 0
0 0 0 0 -6 -35 -51 -100 -116 -70 -87 -41 -143 0 -47 -99 -11 0 0 0 0 0 0 0 0 0 0 0 0 0 0 0 0 0 0 -147 -111 -67 0 0 0 0 0
0 0 0 -29 -29 -57 -35 -77 -113 -9 -126 -161 -26 -51 -20 -59 0 0 -9 0 0 0 0 0 0 0 0 0 0 0 0 0 0 -1 -2 0 -105 -129 0 0 0 0 -32
-6 -47 -65 -47 -62 -52 0 -168 0 0 0 0 -10 0 0 -44 0 0 0 0 0 0 0 0 0 0 0 0 0 0 0 0 0 -2 0 -15 -42 0 0 0 -12 0 0
-64 -89 0 -97 -95 -118 -133 -125 -57 0 -66 0 0 0 0 0 0 0 0 0 0 0 0 0 0 0 0 0 0 -13 0 0 -1 -1 -19 -33 -22 -18 -20 -4 0 0 -2
0 -85 -108 -110 -131 -118 -106 -95 -118 0 0 0 0 0 0 0 0 0 0 0 0 0 0 -49 -5 0 -2 0 0 -3 -7 -2 -5 -2 -24 -13 -15 0 -8 0 0 -5 -15
0 -124 -134 -119 0 0 0 0 0 0 0 0 0 0 0 0 0 0 0 0 0 0 0 0 0 -22 0 0 0 0 -1 -11 -6 0 -3 0 0 -1 -5 -1 -6 -6 -17
-22 -68 0 0 0 0 0 0 0 0 0 0 0 0 0 0 0 0 0 -68 -64 -21 0 -100 -85 -87 -99 0 -13 0 0 -32 -7 -4 -2 -8 -3 -1 0 0 -2 -2 -3
-64 -57 0 0 -3 0 0 0 0 0 0 0 0 0 0 0 0 0 -107 -79 -61 -74 -4 -48 -83 -50 -89 0 -96 -99 -86 -58 -50 -58 -24 -30 -11 -8 -9 -10 -16 -12 -45
-34 -49 -26 -4 0 0 0 0 0 0 0 0 0 0 0 0 -97 -62 -76 -62 -11 0 0 0 0 0 0 0 0 -14 0 0 0 0 0 0 0 0 -7 0 -37 0 0
-41 -30 -35 -8 0 0 0 0 0 0 0 0 0 0 0 0 -45 -57 -49 0 0 0 0 0 0 0 0 0 0 0 0 0 0 0 0 0 0 0 0 0 0 0 0
-52 -27 -8 -2 0 0 0 0 0 0 0 0 0 0 -67 0 -81 0 0 0 0 0 0 0 0 0 0 0 0 0 0 0 0 0 0 0 0 0 0 0 0 0 0
-46 -40 -30 -27 0 0 0 0 0 0 0 0 -46 -16 -58 -56 -70 0 0 0 0 0 0 0 0 0 0 0 0 0 0 0 0 0 0 0 0 0 0 0 0 0 -88
-37 -27 -14 0 -58 -63 -67 0 0 0 0 0 -42 -54 -23 0 -5 0 0 0 0 0 0 0 0 0 0 0 0 0 0 0 0 0 0 0 0 0 0 0 0 0 0
-38 -17 -35 -43 -16 -54 -38 -5 -76 -79 -54 -10 -45 -39 -45 0 0 -19 0 0 0 0 0 0 0 0 0 0 0 0 0 0 0 0 0 -89 -36 -48 0 0 0 0 0
-58 -48 -42 -48 -38 -52 -57 -28 0 -6 -11 -24 -18 0 0 0 0 0 0 0 0 0 0 0 0 0 0 0 0 0 0 0 0 0 0 -55 -44 -4 -36 -17 0 0 -3
Wind_Speed
7 7 6 5 7 5 3 0 3 4 5 7 6 5 4 4 5 5 6 6 6 8 8 9 9 8 6 6 7 7 5 4 5 3 2 2 1 4 2 3 9 9 10
2 3 4 6 6 4 1 3 5 6 5 6 4 4 4 3 3 4 5 5 6 6 7 6 7 6 10 11 8 9 1 2 1 5 3 2 2 2 2 2 4 6 9
6 3 3 4 5 4 3 5 4 2 5 6 6 6 5 5 4 4 3 4 5 5 5 4 5 4 5 4 5 3 5 4 4 4 4 1 2 2 1 3 2 3 2
11 7 7 6 5 1 1 4 5 4 6 5 6 6 6 6 6 6 5 5 6 5 6 5 6 6 6 5 5 5 5 6 6 6 6 4 3 2 3 4 2 1 3
6 3 1 4 7 6 4 6 5 6 5 6 6 6 6 3 2 4 5 5 5 6 7 6 6 8 11 7 4 5 5 5 5 6 7 7 7 5 10 5 6 4 3
4 4 6 5 5 5 6 6 6 5 6 5 6 6 6 4 9 8 4 4 5 6 7 7 7 9 9 12 11 11 7 6 6 3 4 6 8 7 7 9 10 8 8
7 5 6 7 6 6 7 7 6 5 4 3 6 6 5 6 8 8 7 4 5 6 7 7 7 6 8 7 8 10 7 11 10 4 6 6 4 4 5 9 13 10 8
7 6 6 6 6 6 6 6 4 2 1 3 5 6 5 6 11 12 10 5 6 7 5 7 6 6 6 6 7 7 6 6 7 6 8 8 6 5 8 8 9 7 3
6 6 6 6 6 6 4 1 2 1 2 3 4 6 7 4 6 9 7 4 5 7 5 5 4 0 3 8 6 6 7 6 6 13 14 13 11 11 7 4 5 7 5
6 5 5 5 4 2 4 4 4 3 4 3 4 5 5 1 7 22 11 5 6 5 6 7 2 3 7 6 3 3 5 7 6 5 5 10 11 9 12 9 5 8 6
4 5 5 4 2 3 4 3 3 3 7 9 6 6 6 5 7 12 14 5 5 4 4 5 4 5 8 7 5 5 7 4 7 5 5 5 5 8 8 8 8 9 8
4 4 4 3 3 3 5 4 4 6 6 6 6 10 7 7 7 7 7 3 4 3 5 5 5 10 14 16 11 13 14 8 4 5 5 6 7 6 6 6 8 9 6
1 2 3 4 4 5 2 3 5 5 5 6 8 6 8 5 5 7 9 9 8 4 5 6 14 16 16 12 14 13 6 4 4 4 6 6 5 5 6 4 5 9 11
3 5 5 4 5 6 5 5 3 2 3 3 6 6 5 5 3 4 5 5 7 7 9 9 11 16 15 10 9 6 4 3 3 5 5 6 3 4 6 5 5 7 8
5 6 6 4 5 4 3 3 2 5 6 4 4 4 3 4 3 3 4 4 5 6 8 4 5 7 8 7 6 3 2 2 2 3 3 3 3 5 6 6 7 8 5
6 5 4 4 4 3 3 4 6 5 9 3 1 1 3 2 3 5 6 7 5 5 3 4 6 7 7 7 8 4 2 3 3 3 3 1 1 3 4 4 6 8 6
5 3 3 4 4 4 4 3 3 5 8 8 7 5 4 5 7 7 9 8 5 4 2 3 3 4 5 4 5 5 5 4 4 4 3 3 3 0 3 5 4 7 4
3 4 2 3 3 2 3 5 4 4 4 4 5 6 6 8 8 7 8 6 4 2 3 4 5 5 3 3 2 1 2 3 3 3 3 3 4 4 1 7 5 5 4
2 1 2 4 2 5 5 5 4 4 3 4 4 4 7 10 10 9 7 1 4 5 5 5 4 4 4 3 4 4 4 4 3 4 3 1 3 2 1 1 3 4 7
3 3 4 3 5 5 4 4 4 4 4 4 4 3 5 5 5 4 3 2 4 5 6 9 9 8 7 7 10 5 6 9 7 5 6 6 6 4 4 5 6 7 4
3 1 7 4 5 4 3 3 4 3 2 2 2 3 5 2 5 4 4 4 4 5 5 7 9 9 9 8 8 8 7 6 5 6 5 6 6 5 6 5 6 7 7
3 3 4 4 4 3 3 3 2 1 1 2 3 4 8 3 5 2 4 4 4 5 4 6 7 8 7 7 8 8 7 7 6 5 5 5 5 5 5 5 5 6 7
4 3 2 1 4 3 3 3 3 3 3 5 5 4 4 4 4 3 4 4 4 5 4 6 6 7 6 7 8 7 6 6 5 5 5 5 5 5 5 5 5 4 5
3 1 1 4 3 3 3 4 4 6 6 4 5 4 3 4 4 4 4 4 5 5 5 6 7 8 7 7 6 6 5 5 4 5 6 4 4 4 5 4 4 5 5
3 3 4 2 2 3 2 2 4 7 4 3 3 4 3 4 5 4 3 3 4 5 6 5 4 7 8 9 9 10 9 9 8 9 5 5 5 4 3 4 3 3 3
3 3 1 1 4 4 1 2 3 2 4 3 4 4 5 5 5 5 5 5 4 5 6 5 6 10 9 8 9 10 11 11 10 8 5 3 5 2 3 4 4 2 4
Wind_Direction
194 207 200 181 108 94 96 348 293 283 269 265 278 281 295 275 274 281 272 258 250 261 263 259 255 251 250 246 227 229 234 217 219 271 208 263 69 155 225 172 165 161 169
328 318 152 97 98 115 253 268 271 259 277 253 261 271 279 267 258 248 262 278 279 278 274 280 269 262 251 251 251 227 3 5 245 287 247 224 106 39 206 196 179 181 165
319 209 196 172 158 203 221 251 254 10 53 24 29 21 359 323 316 344 334 320 322 310 307 305 300 305 292 263 250 235 233 207 217 234 250 160 75 132 138 60 90 56 210
205 194 178 167 175 204 256 66 95 72 59 45 37 23 14 26 36 18 355 355 348 332 317 294 283 274 266 254 234 226 216 217 224 225 225 199 175 179 127 170 186 230 170
166 145 355 59 108 120 112 107 88 58 33 28 18 2 357 348 18 350 331 333 329 324 317 310 291 282 280 255 206 230 216 230 231 227 240 225 206 186 198 194 201 166 225
149 121 127 115 87 41 94 98 90 66 42 23 346 344 339 336 339 336 321 315 309 298 293 294 288 288 289 274 256 242 213 208 232 212 236 256 261 231 206 202 212 202 210
137 138 97 91 85 70 87 79 71 64 49 358 331 339 323 317 312 316 310 297 295 286 283 285 292 291 290 286 274 258 249 245 225 220 217 222 212 212 238 225 196 200 208
80 87 80 75 76 68 81 84 86 99 13 305 308 317 314 300 351 348 329 294 284 284 282 285 304 311 355 357 330 294 243 229 228 208 211 232 214 213 215 208 196 217 233
55 47 46 60 77 69 40 122 214 226 291 290 308 311 317 359 6 347 338 301 283 284 289 304 295 359 344 35 22 352 316 270 252 224 218 219 219 215 202 204 203 185 189
36 31 43 64 90 30 305 295 231 239 251 290 322 326 323 94 4 300 274 270 277 281 306 300 193 189 356 332 350 315 300 279 291 276 229 237 238 224 218 225 208 203 186
40 36 33 31 10 316 315 245 277 3 10 337 345 333 310 221 259 269 269 278 276 298 297 302 314 251 295 275 258 247 241 226 280 284 269 252 218 216 221 216 214 203 181
28 12 355 333 322 330 316 354 41 13 16 14 354 337 323 294 288 305 331 344 331 331 299 294 300 293 299 293 282 250 243 246 225 249 267 256 234 216 238 229 216 192 183
231 278 268 279 291 331 349 21 47 42 34 47 324 266 282 292 312 21 3 359 341 327 285 297 306 292 288 290 269 259 233 233 227 238 260 248 236 212 179 185 181 174 146
265 279 289 346 346 43 76 79 104 193 228 231 274 288 280 298 15 12 350 338 331 338 332 313 300 290 278 275 289 222 190 215 241 258 249 253 223 174 189 179 180 159 149
26 43 41 20 35 81 130 196 234 251 213 219 242 264 314 336 346 309 313 333 331 311 316 305 326 334 341 342 337 19 68 273 273 282 256 232 215 202 186 184 168 147 133
59 45 42 34 13 345 299 305 268 294 330 36 20 122 7 110 276 292 280 321 331 14 353 334 344 346 345 351 353 357 29 348 299 301 314 123 70 78 95 83 116 119 118
97 58 28 21 325 309 330 4 11 348 55 69 98 87 15 323 351 345 338 326 313 7 325 310 318 312 333 10 4 5 16 358 2 37 15 19 38 197 122 120 126 135 134
98 46 50 303 333 333 354 30 41 31 16 351 24 42 356 11 5 348 351 347 333 337 282 279 287 289 298 321 323 78 14 334 349 353 3 349 23 63 159 147 127 121 142
321 357 339 333 344 57 48 35 41 42 5 4 354 319 358 345 311 300 303 298 306 315 336 348 320 311 289 296 290 288 287 283 310 334 321 302 157 133 126 128 149 128 136
341 218 27 57 50 51 43 40 37 31 13 22 1 344 330 344 344 321 324 346 23 20 9 12 6 2 16 28 15 20 31 45 47 26 31 29 52 81 93 107 139 132 126
319 344 94 95 75 74 62 45 44 47 17 354 305 278 261 291 305 322 19 31 31 22 26 30 24 29 21 12 22 29 34 31 34 44 36 24 33 50 52 70 96 108 106
317 107 134 124 122 112 98 83 67 17 324 300 292 298 316 307 325 28 47 39 43 37 49 44 42 30 28 20 13 19 22 20 16 25 33 33 39 45 59 59 63 106 115
18 125 120 97 132 159 139 166 182 211 254 271 289 292 303 323 338 53 62 43 57 53 49 58 51 33 26 29 28 20 22 6 348 18 40 43 42 52 57 70 84 67 112
13 241 78 98 140 218 205 223 236 228 244 250 265 269 21 21 337 68 68 51 51 68 61 71 66 56 34 26 20 13 1 344 14 15 17 32 40 58 74 57 78 89 85
19 107 106 141 312 338 350 41 267 278 310 70 43 61 88 54 36 34 51 70 72 82 80 88 80 72 50 33 19 11 4 19 18 343 345 359 32 50 98 97 96 86 106
95 61 342 301 297 293 266 205 17 63 11 284 79 83 70 67 54 30 29 44 61 76 89 77 68 61 47 28 13 4 2 358 1 353 341 22 79 40 30 123 162 116 134